Find Starlink 32482

NORAD ID: 62141 Int'l Des: 2024-224 Owner: SPXS Country: US Constellation: starlink operational
LEOCIRCULAR

現在のビュー

3D地球を読み込み中...

About Starlink 32482

Starlink 32482 (NORAD 62141) is a starlink constellation satellite (v2 mini) launched Nov 30, 2024 by SPXS of US. It operates in LEO, CIRCULAR orbit with a mass of 730.00 kg.

Starlink 32482について

説明を読み込み中...

次回通過

Passes for default location (London). Set your location on the main map for personalized predictions.

高度履歴

Loading altitude history...

軌道要素

1 62141U 24224C 26195.28700942 .00009725 00000-0 36234-3 0 9997
2 62141 43.0032 162.9630 0002232 271.2126 88.8470 15.27590231 91689
Epoch: Jul 14, 2026 • Age: 16 hours

現在のステータス

高度 482.3 km
遠地点 / 近地点 N/A
速度 7.63 km/s
衛星直下点 11.36°N, 100.99°W
打ち上げ日 Nov 30, 2024
運用期間 1.6 years
タイプ internet

技術仕様

分類 Payload
質量 730.00 kg
乾燥質量 700.00 kg
総質量 730.00 kg
長さ 0.30 m
直径 4.10 m
スパン 29.00 m
形状 Box + pan
製造者 SPXS
バスタイプ Starlink V2M
フェーズステータス In Orbit
所有者/国 SPXS/US

Most Searched